Find KUIPER-00454

NORAD ID: 68948 Int'l Des: 2026-098AF Owner: amazon-leo Country: USA Constellation: amazon-leo operational
LEOCIRCULAR

Live Position

Loading 3D Globe...

About KUIPER-00454

Description loading...

Upcoming Passes

Passes for default location (London). Set your location on the main map for personalized predictions.

Altitude History

Loading altitude history...

Two-Line Element Set

1 68948U 26098AF 26125.50001156 -.00003901 00000-0 -10984-3 0 9994
2 68948 51.8789 273.4559 0016188 0.3811 220.3822 15.32578785 1301
Epoch: May 5, 2026 • Age: 11 hours

Current Status

Altitude 471.4 km
Velocity 7.63 km/s
Sub-Earth Point -34.42°S, 24.58°E
Type internet

Most Searched